EW7893 Weather Reports


time (UTC)temp
F
wind
direction
speed
knots
gust
knots
rain 1hr
in
rain 24hr
in
rain mn
in
humidity
%
barometer
mb
20260504194537 73 187 3.5 11.3 0.00 0.00 0.00 33 1009.8
20260504193118 73 209 2.6 11.3 0.00 0.00 0.00 32 1009.9
20260504191504 73 192 3.5 9.6 0.00 0.00 0.00 32 1010.1
20260504190006 73 290 2.6 11.3 0.00 0.00 0.00 32 1010.4
20260504184530 73 210 1.7 10.4 0.00 0.00 0.00 32 1010.6
20260504183036 72 214 3.5 7.0 0.00 0.00 0.00 33 1010.8
20260504181548 72 186 4.3 9.6 0.00 0.00 0.00 32 1011.1
20260504180319 71 175 5.2 10.4 0.00 0.00 0.00 33 1011.2
20260504180052 71 185 4.3 10.4 0.00 0.00 0.00 33 1011.3
20260504174504 71 203 2.6 9.6 0.00 0.00 0.00 32 1011.4
20260504173002 70 210 6.1 13.0 0.00 0.00 0.00 34 1011.6
20260504171508 70 105 5.2 11.3 0.00 0.00 0.00 34 1011.6
20260504160317 69 243 4.3 13.9 0.00 0.00 0.00 35 1012.8
20260504160111 68 181 7.0 13.9 0.00 0.00 0.00 35 1012.8
20260504140308 64 224 5.2 10.4 0.00 0.00 0.00 44 1013.6
20260504120306 54 181 2.6 8.7 0.00 0.00 0.00 63 1014.7
20260504120120 54 182 1.7 8.7 0.00 0.00 0.00 63 1014.7
20260504100310 48 172 0.9 6.1 0.00 0.00 0.00 62 1014.6
20260504081540 47 179 1.7 4.3 0.00 0.00 0.00 58 1014.2
20260504080304 47 215 0.0 0.9 0.00 0.00 0.00 59 1014.1
20260504050002 49 191 0.0 1.7 0.00 0.00 0.00 55 1013.5
20260504044516 49 244 0.0 2.6 0.00 0.00 0.00 54 1013.4
20260504043029 49 189 0.0 1.7 0.00 0.00 0.00 54 1013.4
20260504041525 49 202 0.0 1.7 0.00 0.00 0.00 54 1013.3
20260504040310 50 209 0.0 0.9 0.00 0.00 0.00 54 1013.2
20260504040024 50 179 0.0 0.9 0.00 0.00 0.00 53 1013.2
20260504034535 50 214 0.0 3.5 0.00 0.00 0.00 53 1013.1
20260504033052 50 139 0.0 1.7 0.00 0.00 0.00 52 1013.1
20260504031509 51 215 0.0 1.7 0.00 0.00 0.00 49 1012.9
20260504030019 51 181 0.0 4.3 0.00 0.00 0.00 47 1012.9
20260504024554 51 140 0.0 1.7 0.00 0.00 0.00 47 1013.0
20260504023051 52 141 0.0 1.7 0.00 0.00 0.00 47 1012.9
20260504021600 52 184 0.0 0.9 0.00 0.00 0.00 45 1012.9
20260504020300 53 195 0.0 2.6 0.00 0.00 0.00 43 1013.0
20260504014520 53 212 0.0 0.9 0.00 0.00 0.00 42 1012.9
20260504013041 53 169 0.0 1.7 0.00 0.00 0.00 41 1012.7
20260504011546 53 191 0.0 0.9 0.00 0.00 0.00 40 1012.5
20260504010100 54 214 0.0 1.7 0.00 0.00 0.00 39 1012.4
20260504004534 54 229 0.0 0.9 0.00 0.00 0.00 38 1012.1
20260504003029 55 153 0.0 0.9 0.00 0.00 0.00 37 1011.9
20260504001557 56 211 0.0 1.7 0.00 0.00 0.00 35 1011.7
20260504000316 58 234 0.0 1.7 0.00 0.00 0.00 33 1011.4
20260504000001 57 246 0.0 2.6 0.00 0.00 0.00 33 1011.5
20260503234503 58 258 0.0 3.5 0.00 0.00 0.00 32 1011.4
20260503233002 59 146 0.0 5.2 0.00 0.00 0.00 31 1011.1
20260503231513 61 224 0.0 3.5 0.00 0.00 0.00 28 1011.1
20260503230031 61 252 0.9 8.7 0.00 0.00 0.00 28 1010.9
20260503224553 61 336 2.6 7.8 0.00 0.00 0.00 27 1010.9
20260503223002 61 347 1.7 8.7 0.00 0.00 0.00 26 1010.8
20260503221520 61 25 1.7 10.4 0.00 0.00 0.00 27 1010.7
20260503220304 61 345 6.1 11.3 0.00 0.00 0.00 26 1010.8
20260503220021 61 324 3.5 11.3 0.00 0.00 0.00 26 1010.8
20260503214541 61 284 2.6 9.6 0.00 0.00 0.00 27 1010.8
20260503213001 61 238 3.5 11.3 0.00 0.00 0.00 26 1010.7
20260503211508 61 331 3.5 13.9 0.00 0.00 0.00 26 1010.8
20260503210025 60 319 2.6 13.9 0.00 0.00 0.00 28 1010.8
20260503204555 61 246 3.5 10.4 0.00 0.00 0.00 27 1010.6
20260503203003 60 248 2.6 17.4 0.00 0.00 0.00 28 1010.8
20260503201525 60 317 4.3 10.4 0.00 0.00 0.00 29 1010.8
20260503200318 60 292 4.3 11.3 0.00 0.00 0.00 27 1011.0
20260503200033 60 284 2.6 11.3 0.00 0.00 0.00 29 1011.1